Location: P�rn�nmaa
(61.1833°N, 23.0000°E)
Time: 19:05:53
(UTC+00:00)

Cosmos 1269 Rocket - Pass Details

Date: 08 December 2019
Orbit: 773 x 778 km, 74.1° (Epoch: 17 January)

Event Time Altitude Azimuth Distance (km) Brightness Sun altitude
Rises 16:29:37 0° 222° (SW) 3,257 8.1 -20.9°
Reaches altitude 10° 16:32:01 10° 225° (SW) 2,332 7.2 -21.2°
Maximum altitude 16:37:18 68° 309° (NW) 841 4.3 -21.9°
Enters shadow 16:39:54 30° 24° (NNE) 1,364 5.0 -22.2°
